Regional Weather Roundup
Issued by NWS Wakefield, VA

Home | Current Version | Previous Version | Text Only | Print | Product List | Glossary Off
Versions: 1 2 3 4 5 6 7 8 9 10 11 12 13 14 15 16 17 18 19 20 21 22 23 24 25 26 27 28 29 30 31 32 33 34 35 36 37 38 39 40 41 42 43 44 45 46 47 48 49 50

000
ASUS41 KAKQ 292113
RWRAKQ

REGIONAL WEATHER ROUNDUP
NATIONAL WEATHER SERVICE WAKEFIELD VA
500 PM EDT SUN MAR 29 2015

Note: "fair" indicates few or no clouds below 12,000 feet with no
significant weather and/or obstructions to visibility. * = Denotes
station may not report precipitation (e.g., rain,snow,etc.),
thunder or fog.

VAZ042-051-052>054-056-292200-
NORTHERN VIRGINIA

CITY           SKY/WX    TMP DP  RH WIND       PRES   REMARKS
WASH NATIONAL  MOSUNNY   48   6  18 VRB5      30.27F
DULLES         MOSUNNY   45   5  19 W3        30.26F
FORT BELVOIR   SUNNY     47   3  16 SW5       30.27F
QUANTICO       SUNNY     46  13  26 S7        30.28F
FREDERICKSBRG* SUNNY     49   5  16 SW6       30.27S
STAFFORD*      SUNNY     47   0  14 NW7       30.30F
WARRENTON      SUNNY     49  17  28 CALM      30.25F
CULPEPER*      SUNNY     48   3  15 S3        30.26F
MANASSAS*      SUNNY     46   1  15 CALM      30.27F
LEESBURG*      SUNNY     46  14  27 W6        30.26F
WINCHESTER     SUNNY     50 -17   6 SW8       30.21F
FRONT ROYAL*   FAIR      46   5  18 CALM      30.21F
LURAY*         FAIR      50  12  22 S3        30.21F
$$

VAZ048-049-060>072-079>083-292200-
CENTRAL AND SOUTH CENTRAL VIRGINIA

CITY           SKY/WX    TMP DP  RH WIND       PRES   REMARKS
RICHMOND       MOSUNNY   48   1  14 CALM      30.28F
CHESTERFIELD*  NOT AVBL
PETERSBURG*    SUNNY     49   1  13 S3        30.29S
HANOVER        SUNNY     48   6  18 SW8       30.29F
TAPPAHANNOCK*  SUNNY     47  -5  11 W5        30.28F
QUINTON*       FAIR      46   3  17 CALM      30.28F
CHARLOTTSVILLE SUNNY     48   3  15 SW9       30.24F
GORDONSVILLE*  FAIR      48   4  16 W3        30.24F
ORANGE*        SUNNY     50   9  18 SW7       30.27F
LOUISA*        SUNNY     50   7  17 W6        30.25F
BUMPASS*       FAIR      47   2  16 S7        30.26F
FARMVILLE*     SUNNY     52   5  15 SW7       30.26S
CREWE*         FAIR      48  -2  13 MISG      30.28S
FORT PICKETT*  FAIR      47   2  15 CALM      30.28S
CHASE CITY*    FAIR      50  10  20 CALM      30.29R
CLARKSVILLE*   FAIR      48  10  21 W5        30.28S
SOUTH HILL*    SUNNY     47   8  20 SW3       30.34F
LAWRENCEVILLE* FAIR      48   9  20 NW3       30.28F
EMPORIA*       SUNNY     46  10  23 S3        30.31F
$$

VAZ088>098-292200-
SOUTHEAST VIRGINIA

CITY           SKY/WX    TMP DP  RH WIND       PRES   REMARKS
NORFOLK        SUNNY     46  10  23 VRB3      30.30F
VIRGINIA BEACH SUNNY     47  14  26 NW8       30.30F
NORFOLK NAVAL  NOT AVBL
WEST POINT*    SUNNY     49  -6  10 W6        30.30F
SALUDA*        FAIR      43   9  24 CALM      30.28F
NEWPORT NEWS   SUNNY     49  10  20 NW7       30.30
LANGLEY AFB    SUNNY     44   8  22 W3        30.29F
FORT EUSTIS    SUNNY     46  13  26 NW7       30.28F
WILLIAMSBURG*  SUNNY     48  14  25 SW7G16    30.30F
HR EXEC AP*    FAIR      46  10  23 NW9       30.31F
FRANKLIN*      SUNNY     46   9  22 W5        30.30F
WAKEFIELD      SUNNY     48   5  17 CALM      30.29F
$$

VAZ020-022-025-037-045-292200-
WEST CENTRAL AND SOUTHWEST VIRGINIA

CITY           SKY/WX    TMP DP  RH WIND       PRES   REMARKS
STAUNTON*      SUNNY     48   3  15 S6        30.23F
WAYNESBORO*    FAIR      46   4  17 S5        30.22S
HOT SPRINGS VA SUNNY     40  -6  14 SW9G18    30.13F
LYNCHBURG      SUNNY     48   4  16 S9        30.27S
DANVILLE       SUNNY     52   7  16 VRB5      30.29S
SOUTH BOSTON*  FAIR      50  -1  12 NW8       30.29R
MARTINSVILLE   SUNNY     54   8  15 SW6       30.29S
ROANOKE        MOSUNNY   51   7  16 S13       30.24F
BLACKSBURG     SUNNY     47   2  15 SW8       30.22F
DUBLIN*        SUNNY     51   2  13 CALM      30.19F
MARION*        SUNNY     51  -3  10 W13G18    30.20F
HILLSVILLE*    SUNNY     47  11  23 S13       30.18F
RICHLANDS*     FAIR      48  -5  11 SW9G18    30.18F
WISE*          SUNNY     50   0  12 SW12      30.19F
ABINGDON*      SUNNY     54   2  12 W13       30.20F
$$

MDZ021>025-VAZ099-100-292200-
SOUTHERN MARYLAND AND THE DELMARVA PENINSULA

CITY           SKY/WX    TMP DP  RH WIND       PRES   REMARKS
PATUXENT RIVER MOSUNNY   41  15  35 E6        30.27F
BAY BRIDGE APT   N/A     43  12  28 S8        30.27F
LEONARDTOWN    SUNNY     43   5  21 SW5       30.28F
DOVER          SUNNY     44  12  27 W8G17     30.21F
GEORGETOWN     SUNNY     42   8  24 W10G16    30.26F
EASTON         SUNNY     45  12  26 W9        30.30F
CAMBRIDGE      SUNNY     43   9  24 W5        30.27F
SALISBURY      SUNNY     42  11  28 W5        30.27F
OCEAN CITY     SUNNY     44  12  27 N7        30.26F
WALLOPS ISLAND SUNNY     43  12  28 NW13      30.28F
ACCOMACK*      SUNNY     41   3  20 N6        30.29F
$$

NCZ012>017-030>032-292200-
NORTH CENTRAL AND EASTERN NORTH CAROLINA

CITY           SKY/WX    TMP DP  RH WIND       PRES   REMARKS
ROANOKE RAPIDS FAIR      46  10  23 N3        30.30F
RALEIGH        MOSUNNY   51  11  20 SW8       30.31F
ELIZABETH CITY SUNNY     46  10  23 N9        30.31F
AHOSKIE*       SUNNY     45  10  24 CALM      30.31F
EDENTON*       SUNNY     46  13  25 W6        30.33F
CURRITUCK*     SUNNY     46   4  18 NW5       30.32F
KILL DEVIL HLS SUNNY     40  19  42 NE6       30.32S
MANTEO         SUNNY     41  16  35 NE5       30.34S
CAPE HATTERAS  SUNNY     44  13  28 N7        30.34S
TARBORO*       FAIR      49  10  20 SW3       30.32F
GOLDSBORO      SUNNY     49  13  23 W9        30.31F
WASHINGTON     SUNNY     47  14  26 W7        30.32F
GREENVILLE     SUNNY     48  12  23 NW3       30.32F
NEW BERN       SUNNY     48  11  22 NW7       30.34F
WILMINGTON     SUNNY     52  13  21 W12       30.35S
$$

VAZ048-292200-
ELSEWHERE

CITY           SKY/WX    TMP DP  RH WIND       PRES   REMARKS
HARRISBURG PA  MOSUNNY   45   8  22 W7G18     30.21F
BALTIMORE      MOSUNNY   46  10  23 W13G18    30.24F
ANNAPOLIS      SUNNY     39  22  50 SE14      30.26F
ANDREWS AFB    SUNNY     44   7  22 W9        30.25F
PHILADELPHIA   SUNNY     45   5  19 SW9       30.22F
HENDERSON NC   SUNNY     49   0  13 SW3       30.30R
GREENSBORO     MOSUNNY   52   6  15 VRB5      30.28S
ROCKY MOUNT    SUNNY     49   9  19 CALM      30.31F
$$

VAZ100-292200-
MARINE

STATION/POSITION TIME  TEMP    WIND        PRES    WAVE   SWELL
                       AIR SEA DIR/SP/G            HT/PER HT/PER
                 (UTC) (F)     (DEG/KT/KT) (MB)    (FT/S) (FT/S)
BRANDYWINE LGT   2000   37 40  330/  6/  7 1025.0F
CAPE MAY NJ      2000   39 43  300/ 15/ 17 1024.3F
LEWES DE         2000   38 42  350/  6/  8 1025.0F
15NM E FENWICK I 2050   37 39              1024.3F   4/10
OCEAN-CITY-INLET 2000   40 40  290/ 11/ 14 1025.0F
WACHAPREAGUE VA  2000   40 44  330/  8/ 15 1026.6F
THOMAS POINT MD  2100                        N/A
COVE POINT MD    2000   36     120/  3/  4 1025.9F
SOLOMONS ISLAND  2000      44                N/A
BISHOPS HEAD MD  2000   36 43  250/  8/ 10 1025.8F
PINEY POINT MD   2000          330/  9/  9   N/A
CAMBRIDGE MD     2000   38 42  340/  8/  9 1025.7F
LEWISETTA VA     2000   40 44              1026.0F
RAPPAHANNOCK LGT 2000          360/  6/  7 1027.4F
STINGRAY PT      2100   38 45   80/  8/ 10   N/A     1/ 2
YORK RVR RNG VA  2000   41     120/  3/  4 1026.2
YORKTOWN VA      2000   42 46  340/ 10/ 12 1026.4
DOMINION TERM VA 2000   41     320/  9/ 11 1027.1F
KIPTOPEKE VA     2000      47  330/  6/  7   N/A
CHES BAY BRIDGE  2000   40 44  300/  4/  5 1026.8F
CAPE HENRY VA    2000   39     290/ 10/ 12 1025.9F
CHESAPEAKE LGHT  2000   36     330/ 12/ 13 1027.6F
WILLOUBY STN VA  2000   41     280/ 13/ 17 1027.3F
S CRANEY ISL VA  2000          330/  9/ 12 1027.0
CAPE HENRY BUOY  2028      40                N/A     3/ 6
1ST LANDING BUOY 2100   41     320/  2/  2 1025.9F   1/ 4
OFFSHORE WE BUOY 2011      40                N/A     4/ 5   3/ 5
64NM E OF VA BCH 2050   38 55  330/ 19/ 23 1025.9F   5/ 5   2/ 8
DUCK PIER NC     2000   36 43   30/ 11/ 12 1026.2
44056 DUCK FRF   2011      42                N/A     4/ 6
OREGON INLET NC  2000   36 44   20/ 11/ 14 1027.2F
HATTERAS NC      2000   41 49  350/ 10/ 13 1027.5F
CAPE LOOKOUT NC  2100   47     280/  7/  8 1026.8F
$$


USA.gov is the U.S. government's official web portal to all federal, state and local government web resources and services.